Location: İstanbul
(41.0082°N, 28.9784°E)
Time: 02:51:09
(UTC+02:00)

Oscar 11 - Pass Details

Date: 20 October 2021
Orbit: 614 x 623 km, 97.6° (Epoch: 01 December)

Event Time Altitude Azimuth Distance (km) Brightness Sun altitude
Rises 19:01:13 0° 214° (SSW) 2,868 11.1 -9.2°
Reaches altitude 10° 19:04:34 10° 242° (WSW) 1,970 10.9 -9.9°
Maximum altitude 19:06:31 13° 270° (W) 1,791 10.9 -10.2°
Drops below altitude 10° 19:08:28 10° 297° (WNW) 1,978 10.6 -10.6°
Sets 19:11:52 0° 326° (NW) 2,891 10.9 -11.2°
